owner,sensor,date,latitude,longitude,vertical_datum,sea_water_temperature,qcFlag 
NERRS,ioos:station:NOAA.NERRS:apaebwq:1,2017-02-01T00:45:00Z,29.7858,-84.8752,0.0,16.5,2 
NERRS,ioos:station:NOAA.NERRS:apaebwq:1,2017-02-01T01:45:00Z,29.7858,-84.8752,0.0,16.0,2 
NERRS,ioos:station:NOAA.NERRS:apaebwq:1,2017-02-01T02:45:00Z,29.7858,-84.8752,0.0,16.0,2 
NERRS,ioos:station:NOAA.NERRS:apaebwq:1,2017-02-01T03:45:00Z,29.7858,-84.8752,0.0,15.7,2 
NERRS,ioos:station:NOAA.NERRS:apaebwq:1,2017-02-01T04:45:00Z,29.7858,-84.8752,0.0,15.6,2 
NERRS,ioos:station:NOAA.NERRS:apaebwq:1,2017-02-01T05:45:00Z,29.7858,-84.8752,0.0,15.7,2 
NERRS,ioos:station:NOAA.NERRS:apaebwq:1,2017-02-01T06:45:00Z,29.7858,-84.8752,0.0,15.7,2 
NERRS,ioos:station:NOAA.NERRS:apaebwq:1,2017-02-01T07:45:00Z,29.7858,-84.8752,0.0,15.8,2 
NERRS,ioos:station:NOAA.NERRS:apaebwq:1,2017-02-01T08:45:00Z,29.7858,-84.8752,0.0,15.8,2 
NERRS,ioos:station:NOAA.NERRS:apaebwq:1,2017-02-01T09:45:00Z,29.7858,-84.8752,0.0,15.9,2 
NERRS,ioos:station:NOAA.NERRS:apaebwq:1,2017-02-01T10:45:00Z,29.7858,-84.8752,0.0,16.0,2 
NERRS,ioos:station:NOAA.NERRS:apaebwq:1,2017-02-01T11:45:00Z,29.7858,-84.8752,0.0,16.1,2 
NERRS,ioos:station:NOAA.NERRS:apaebwq:1,2017-02-01T12:45:00Z,29.7858,-84.8752,0.0,15.8,2 
NERRS,ioos:station:NOAA.NERRS:apaebwq:1,2017-02-01T13:45:00Z,29.7858,-84.8752,0.0,15.6,2 
NERRS,ioos:station:NOAA.NERRS:apaebwq:1,2017-02-01T14:45:00Z,29.7858,-84.8752,0.0,15.7,2 
NERRS,ioos:station:NOAA.NERRS:apaebwq:1,2017-02-01T15:45:00Z,29.7858,-84.8752,0.0,15.6,2 
NERRS,ioos:station:NOAA.NERRS:apaebwq:1,2017-02-01T16:45:00Z,29.7858,-84.8752,0.0,15.6,2 
NERRS,ioos:station:NOAA.NERRS:apaebwq:1,2017-02-01T17:45:00Z,29.7858,-84.8752,0.0,15.6,2 
NERRS,ioos:station:NOAA.NERRS:apaebwq:1,2017-02-01T18:45:00Z,29.7858,-84.8752,0.0,15.8,2 
NERRS,ioos:station:NOAA.NERRS:apaebwq:1,2017-02-01T19:45:00Z,29.7858,-84.8752,0.0,15.8,2 
NERRS,ioos:station:NOAA.NERRS:apaebwq:1,2017-02-01T20:45:00Z,29.7858,-84.8752,0.0,17.4,2 
NERRS,ioos:station:NOAA.NERRS:apaebwq:1,2017-02-01T21:45:00Z,29.7858,-84.8752,0.0,17.8,2 
NERRS,ioos:station:NOAA.NERRS:apaebwq:1,2017-02-01T22:45:00Z,29.7858,-84.8752,0.0,17.6,2 
NERRS,ioos:station:NOAA.NERRS:apaebwq:1,2017-02-01T23:45:00Z,29.7858,-84.8752,0.0,17.2,2 
NERRS,ioos:station:NOAA.NERRS:apaebwq:1,2017-02-02T00:45:00Z,29.7858,-84.8752,0.0,17.4,2 
NERRS,ioos:station:NOAA.NERRS:apaebwq:1,2017-02-02T01:45:00Z,29.7858,-84.8752,0.0,17.4,2 
NERRS,ioos:station:NOAA.NERRS:apaebwq:1,2017-02-02T02:45:00Z,29.7858,-84.8752,0.0,17.5,2 
NERRS,ioos:station:NOAA.NERRS:apaebwq:1,2017-02-02T03:45:00Z,29.7858,-84.8752,0.0,17.7,2 
NERRS,ioos:station:NOAA.NERRS:apaebwq:1,2017-02-02T04:45:00Z,29.7858,-84.8752,0.0,17.6,2 
NERRS,ioos:station:NOAA.NERRS:apaebwq:1,2017-02-02T05:45:00Z,29.7858,-84.8752,0.0,17.6,2 
NERRS,ioos:station:NOAA.NERRS:apaebwq:1,2017-02-02T06:45:00Z,29.7858,-84.8752,0.0,17.7,2 
NERRS,ioos:station:NOAA.NERRS:apaebwq:1,2017-02-02T07:45:00Z,29.7858,-84.8752,0.0,17.7,2 
NERRS,ioos:station:NOAA.NERRS:apaebwq:1,2017-02-02T08:45:00Z,29.7858,-84.8752,0.0,17.6,2 
NERRS,ioos:station:NOAA.NERRS:apaebwq:1,2017-02-02T09:45:00Z,29.7858,-84.8752,0.0,17.2,2 
NERRS,ioos:station:NOAA.NERRS:apaebwq:1,2017-02-02T10:45:00Z,29.7858,-84.8752,0.0,17.1,2 
NERRS,ioos:station:NOAA.NERRS:apaebwq:1,2017-02-02T11:45:00Z,29.7858,-84.8752,0.0,17.1,2 
NERRS,ioos:station:NOAA.NERRS:apaebwq:1,2017-02-02T12:45:00Z,29.7858,-84.8752,0.0,17.3,2 
NERRS,ioos:station:NOAA.NERRS:apaebwq:1,2017-02-02T13:45:00Z,29.7858,-84.8752,0.0,17.1,2 
NERRS,ioos:station:NOAA.NERRS:apaebwq:1,2017-02-02T14:45:00Z,29.7858,-84.8752,0.0,17.1,2 
NERRS,ioos:station:NOAA.NERRS:apaebwq:1,2017-02-02T15:45:00Z,29.7858,-84.8752,0.0,17.3,2 
NERRS,ioos:station:NOAA.NERRS:apaebwq:1,2017-02-02T16:45:00Z,29.7858,-84.8752,0.0,17.4,2 
NERRS,ioos:station:NOAA.NERRS:apaebwq:1,2017-02-02T17:45:00Z,29.7858,-84.8752,0.0,17.4,2 
NERRS,ioos:station:NOAA.NERRS:apaebwq:1,2017-02-02T18:45:00Z,29.7858,-84.8752,0.0,17.5,2 
NERRS,ioos:station:NOAA.NERRS:apaebwq:1,2017-02-02T19:45:00Z,29.7858,-84.8752,0.0,17.5,2 
NERRS,ioos:station:NOAA.NERRS:apaebwq:1,2017-02-02T20:45:00Z,29.7858,-84.8752,0.0,18.6,2 
NERRS,ioos:station:NOAA.NERRS:apaebwq:1,2017-02-02T21:45:00Z,29.7858,-84.8752,0.0,18.4,2 
NERRS,ioos:station:NOAA.NERRS:apaebwq:1,2017-02-02T22:45:00Z,29.7858,-84.8752,0.0,18.6,2 
NERRS,ioos:station:NOAA.NERRS:apaebwq:1,2017-02-02T23:45:00Z,29.7858,-84.8752,0.0,18.5,2 
NERRS,ioos:station:NOAA.NERRS:apaebwq:1,2017-02-03T00:45:00Z,29.7858,-84.8752,0.0,18.5,2 
NERRS,ioos:station:NOAA.NERRS:apaebwq:1,2017-02-03T01:45:00Z,29.7858,-84.8752,0.0,18.6,2 
NERRS,ioos:station:NOAA.NERRS:apaebwq:1,2017-02-03T02:45:00Z,29.7858,-84.8752,0.0,18.5,2 
NERRS,ioos:station:NOAA.NERRS:apaebwq:1,2017-02-03T03:45:00Z,29.7858,-84.8752,0.0,18.4,2 
NERRS,ioos:station:NOAA.NERRS:apaebwq:1,2017-02-03T04:45:00Z,29.7858,-84.8752,0.0,18.3,2 
NERRS,ioos:station:NOAA.NERRS:apaebwq:1,2017-02-03T05:45:00Z,29.7858,-84.8752,0.0,18.3,2 
NERRS,ioos:station:NOAA.NERRS:apaebwq:1,2017-02-03T06:45:00Z,29.7858,-84.8752,0.0,18.5,2 
NERRS,ioos:station:NOAA.NERRS:apaebwq:1,2017-02-03T07:45:00Z,29.7858,-84.8752,0.0,18.4,2 
NERRS,ioos:station:NOAA.NERRS:apaebwq:1,2017-02-03T08:45:00Z,29.7858,-84.8752,0.0,18.4,2 
NERRS,ioos:station:NOAA.NERRS:apaebwq:1,2017-02-03T09:45:00Z,29.7858,-84.8752,0.0,18.2,2 
NERRS,ioos:station:NOAA.NERRS:apaebwq:1,2017-02-03T10:45:00Z,29.7858,-84.8752,0.0,18.1,2 
NERRS,ioos:station:NOAA.NERRS:apaebwq:1,2017-02-03T11:45:00Z,29.7858,-84.8752,0.0,17.9,2 
NERRS,ioos:station:NOAA.NERRS:apaebwq:1,2017-02-03T12:45:00Z,29.7858,-84.8752,0.0,17.9,2 
NERRS,ioos:station:NOAA.NERRS:apaebwq:1,2017-02-03T13:45:00Z,29.7858,-84.8752,0.0,18.0,2 
NERRS,ioos:station:NOAA.NERRS:apaebwq:1,2017-02-03T14:45:00Z,29.7858,-84.8752,0.0,18.0,2 
NERRS,ioos:station:NOAA.NERRS:apaebwq:1,2017-02-03T15:45:00Z,29.7858,-84.8752,0.0,18.0,2 
NERRS,ioos:station:NOAA.NERRS:apaebwq:1,2017-02-03T16:45:00Z,29.7858,-84.8752,0.0,18.0,2 
NERRS,ioos:station:NOAA.NERRS:apaebwq:1,2017-02-03T17:45:00Z,29.7858,-84.8752,0.0,18.0,2 
NERRS,ioos:station:NOAA.NERRS:apaebwq:1,2017-02-03T18:45:00Z,29.7858,-84.8752,0.0,18.2,2 
NERRS,ioos:station:NOAA.NERRS:apaebwq:1,2017-02-03T19:45:00Z,29.7858,-84.8752,0.0,18.4,2 
NERRS,ioos:station:NOAA.NERRS:apaebwq:1,2017-02-03T20:45:00Z,29.7858,-84.8752,0.0,19.3,2 
NERRS,ioos:station:NOAA.NERRS:apaebwq:1,2017-02-03T21:45:00Z,29.7858,-84.8752,0.0,19.7,2 
NERRS,ioos:station:NOAA.NERRS:apaebwq:1,2017-02-03T23:45:00Z,29.7858,-84.8752,0.0,19.3,2 
NERRS,ioos:station:NOAA.NERRS:apaebwq:1,2017-02-04T00:45:00Z,29.7858,-84.8752,0.0,19.1,2 
NERRS,ioos:station:NOAA.NERRS:apaebwq:1,2017-02-04T01:45:00Z,29.7858,-84.8752,0.0,19.0,2 
NERRS,ioos:station:NOAA.NERRS:apaebwq:1,2017-02-04T02:45:00Z,29.7858,-84.8752,0.0,19.1,2 
NERRS,ioos:station:NOAA.NERRS:apaebwq:1,2017-02-04T03:45:00Z,29.7858,-84.8752,0.0,19.4,2 
NERRS,ioos:station:NOAA.NERRS:apaebwq:1,2017-02-04T04:45:00Z,29.7858,-84.8752,0.0,19.1,2 
NERRS,ioos:station:NOAA.NERRS:apaebwq:1,2017-02-04T05:45:00Z,29.7858,-84.8752,0.0,19.2,2 
NERRS,ioos:station:NOAA.NERRS:apaebwq:1,2017-02-04T06:45:00Z,29.7858,-84.8752,0.0,19.0,2 
NERRS,ioos:station:NOAA.NERRS:apaebwq:1,2017-02-04T07:45:00Z,29.7858,-84.8752,0.0,19.1,2 
NERRS,ioos:station:NOAA.NERRS:apaebwq:1,2017-02-04T08:45:00Z,29.7858,-84.8752,0.0,18.9,2 
NERRS,ioos:station:NOAA.NERRS:apaebwq:1,2017-02-04T09:45:00Z,29.7858,-84.8752,0.0,18.6,2 
NERRS,ioos:station:NOAA.NERRS:apaebwq:1,2017-02-04T10:45:00Z,29.7858,-84.8752,0.0,18.2,2 
NERRS,ioos:station:NOAA.NERRS:apaebwq:1,2017-02-04T11:45:00Z,29.7858,-84.8752,0.0,17.9,2 
NERRS,ioos:station:NOAA.NERRS:apaebwq:1,2017-02-04T12:45:00Z,29.7858,-84.8752,0.0,17.1,2 
NERRS,ioos:station:NOAA.NERRS:apaebwq:1,2017-02-04T13:45:00Z,29.7858,-84.8752,0.0,16.7,2 
NERRS,ioos:station:NOAA.NERRS:apaebwq:1,2017-02-04T14:45:00Z,29.7858,-84.8752,0.0,16.7,2 
NERRS,ioos:station:NOAA.NERRS:apaebwq:1,2017-02-04T15:45:00Z,29.7858,-84.8752,0.0,16.7,2 
NERRS,ioos:station:NOAA.NERRS:apaebwq:1,2017-02-04T16:45:00Z,29.7858,-84.8752,0.0,16.8,2 
NERRS,ioos:station:NOAA.NERRS:apaebwq:1,2017-02-04T17:45:00Z,29.7858,-84.8752,0.0,16.7,2 
NERRS,ioos:station:NOAA.NERRS:apaebwq:1,2017-02-04T18:45:00Z,29.7858,-84.8752,0.0,16.7,2 
NERRS,ioos:station:NOAA.NERRS:apaebwq:1,2017-02-04T19:45:00Z,29.7858,-84.8752,0.0,16.8,2 
NERRS,ioos:station:NOAA.NERRS:apaebwq:1,2017-02-04T20:45:00Z,29.7858,-84.8752,0.0,16.7,2 
NERRS,ioos:station:NOAA.NERRS:apaebwq:1,2017-02-04T21:45:00Z,29.7858,-84.8752,0.0,16.8,2 
NERRS,ioos:station:NOAA.NERRS:apaebwq:1,2017-02-04T22:45:00Z,29.7858,-84.8752,0.0,18.0,2 
NERRS,ioos:station:NOAA.NERRS:apaebwq:1,2017-02-04T23:45:00Z,29.7858,-84.8752,0.0,17.7,2 
NERRS,ioos:station:NOAA.NERRS:apaebwq:1,2017-02-05T00:45:00Z,29.7858,-84.8752,0.0,17.2,2 
NERRS,ioos:station:NOAA.NERRS:apaebwq:1,2017-02-05T01:45:00Z,29.7858,-84.8752,0.0,17.2,2 
NERRS,ioos:station:NOAA.NERRS:apaebwq:1,2017-02-05T02:45:00Z,29.7858,-84.8752,0.0,17.2,2 
NERRS,ioos:station:NOAA.NERRS:apaebwq:1,2017-02-05T03:45:00Z,29.7858,-84.8752,0.0,17.2,2 
NERRS,ioos:station:NOAA.NERRS:apaebwq:1,2017-02-05T04:45:00Z,29.7858,-84.8752,0.0,17.3,2 
NERRS,ioos:station:NOAA.NERRS:apaebwq:1,2017-02-05T05:45:00Z,29.7858,-84.8752,0.0,17.5,2 
NERRS,ioos:station:NOAA.NERRS:apaebwq:1,2017-02-05T06:45:00Z,29.7858,-84.8752,0.0,16.8,2 
NERRS,ioos:station:NOAA.NERRS:apaebwq:1,2017-02-05T07:45:00Z,29.7858,-84.8752,0.0,16.7,2 
NERRS,ioos:station:NOAA.NERRS:apaebwq:1,2017-02-05T08:45:00Z,29.7858,-84.8752,0.0,17.0,2 
NERRS,ioos:station:NOAA.NERRS:apaebwq:1,2017-02-05T09:45:00Z,29.7858,-84.8752,0.0,16.7,2 
NERRS,ioos:station:NOAA.NERRS:apaebwq:1,2017-02-05T10:45:00Z,29.7858,-84.8752,0.0,16.5,2 
NERRS,ioos:station:NOAA.NERRS:apaebwq:1,2017-02-05T11:45:00Z,29.7858,-84.8752,0.0,16.4,2 
NERRS,ioos:station:NOAA.NERRS:apaebwq:1,2017-02-05T12:45:00Z,29.7858,-84.8752,0.0,16.2,2 
NERRS,ioos:station:NOAA.NERRS:apaebwq:1,2017-02-05T13:45:00Z,29.7858,-84.8752,0.0,16.2,2 
NERRS,ioos:station:NOAA.NERRS:apaebwq:1,2017-02-05T14:45:00Z,29.7858,-84.8752,0.0,15.7,2 
NERRS,ioos:station:NOAA.NERRS:apaebwq:1,2017-02-05T15:45:00Z,29.7858,-84.8752,0.0,15.7,2 
NERRS,ioos:station:NOAA.NERRS:apaebwq:1,2017-02-05T16:45:00Z,29.7858,-84.8752,0.0,15.8,2 
NERRS,ioos:station:NOAA.NERRS:apaebwq:1,2017-02-05T17:45:00Z,29.7858,-84.8752,0.0,15.9,2 
NERRS,ioos:station:NOAA.NERRS:apaebwq:1,2017-02-05T18:45:00Z,29.7858,-84.8752,0.0,15.9,2 
NERRS,ioos:station:NOAA.NERRS:apaebwq:1,2017-02-05T19:45:00Z,29.7858,-84.8752,0.0,16.5,2 
NERRS,ioos:station:NOAA.NERRS:apaebwq:1,2017-02-05T20:45:00Z,29.7858,-84.8752,0.0,16.8,2 
NERRS,ioos:station:NOAA.NERRS:apaebwq:1,2017-02-05T21:45:00Z,29.7858,-84.8752,0.0,17.5,2 
NERRS,ioos:station:NOAA.NERRS:apaebwq:1,2017-02-05T22:45:00Z,29.7858,-84.8752,0.0,17.5,2 
NERRS,ioos:station:NOAA.NERRS:apaebwq:1,2017-02-05T23:45:00Z,29.7858,-84.8752,0.0,17.4,2 
NERRS,ioos:station:NOAA.NERRS:apaebwq:1,2017-02-06T00:45:00Z,29.7858,-84.8752,0.0,17.5,2 
NERRS,ioos:station:NOAA.NERRS:apaebwq:1,2017-02-06T01:45:00Z,29.7858,-84.8752,0.0,17.6,2 
NERRS,ioos:station:NOAA.NERRS:apaebwq:1,2017-02-06T02:45:00Z,29.7858,-84.8752,0.0,17.5,2 
NERRS,ioos:station:NOAA.NERRS:apaebwq:1,2017-02-06T03:45:00Z,29.7858,-84.8752,0.0,17.5,2 
NERRS,ioos:station:NOAA.NERRS:apaebwq:1,2017-02-06T04:45:00Z,29.7858,-84.8752,0.0,17.1,2 
NERRS,ioos:station:NOAA.NERRS:apaebwq:1,2017-02-06T05:45:00Z,29.7858,-84.8752,0.0,17.7,2 
NERRS,ioos:station:NOAA.NERRS:apaebwq:1,2017-02-06T06:45:00Z,29.7858,-84.8752,0.0,17.8,2 
NERRS,ioos:station:NOAA.NERRS:apaebwq:1,2017-02-06T07:45:00Z,29.7858,-84.8752,0.0,17.6,2 
NERRS,ioos:station:NOAA.NERRS:apaebwq:1,2017-02-06T08:45:00Z,29.7858,-84.8752,0.0,17.2,2 
NERRS,ioos:station:NOAA.NERRS:apaebwq:1,2017-02-06T09:45:00Z,29.7858,-84.8752,0.0,17.1,2 
NERRS,ioos:station:NOAA.NERRS:apaebwq:1,2017-02-06T10:45:00Z,29.7858,-84.8752,0.0,16.8,2 
NERRS,ioos:station:NOAA.NERRS:apaebwq:1,2017-02-06T11:45:00Z,29.7858,-84.8752,0.0,16.8,2 
NERRS,ioos:station:NOAA.NERRS:apaebwq:1,2017-02-06T12:45:00Z,29.7858,-84.8752,0.0,16.7,2 
NERRS,ioos:station:NOAA.NERRS:apaebwq:1,2017-02-06T13:45:00Z,29.7858,-84.8752,0.0,16.5,2 
NERRS,ioos:station:NOAA.NERRS:apaebwq:1,2017-02-06T14:45:00Z,29.7858,-84.8752,0.0,16.4,2 
NERRS,ioos:station:NOAA.NERRS:apaebwq:1,2017-02-06T15:45:00Z,29.7858,-84.8752,0.0,17.1,2 
NERRS,ioos:station:NOAA.NERRS:apaebwq:1,2017-02-06T16:45:00Z,29.7858,-84.8752,0.0,17.1,2 
NERRS,ioos:station:NOAA.NERRS:apaebwq:1,2017-02-06T17:45:00Z,29.7858,-84.8752,0.0,16.9,2 
NERRS,ioos:station:NOAA.NERRS:apaebwq:1,2017-02-06T18:45:00Z,29.7858,-84.8752,0.0,16.9,2 
NERRS,ioos:station:NOAA.NERRS:apaebwq:1,2017-02-06T19:45:00Z,29.7858,-84.8752,0.0,17.0,2 
NERRS,ioos:station:NOAA.NERRS:apaebwq:1,2017-02-06T20:45:00Z,29.7858,-84.8752,0.0,17.1,2 
NERRS,ioos:station:NOAA.NERRS:apaebwq:1,2017-02-06T21:45:00Z,29.7858,-84.8752,0.0,17.2,2 
NERRS,ioos:station:NOAA.NERRS:apaebwq:1,2017-02-06T23:45:00Z,29.7858,-84.8752,0.0,17.5,2 
NERRS,ioos:station:NOAA.NERRS:apaebwq:1,2017-02-07T01:45:00Z,29.7858,-84.8752,0.0,17.7,2 
NERRS,ioos:station:NOAA.NERRS:apaebwq:1,2017-02-07T02:45:00Z,29.7858,-84.8752,0.0,17.9,2 
NERRS,ioos:station:NOAA.NERRS:apaebwq:1,2017-02-07T03:45:00Z,29.7858,-84.8752,0.0,17.6,2 
NERRS,ioos:station:NOAA.NERRS:apaebwq:1,2017-02-07T04:45:00Z,29.7858,-84.8752,0.0,17.5,2 
NERRS,ioos:station:NOAA.NERRS:apaebwq:1,2017-02-07T05:45:00Z,29.7858,-84.8752,0.0,17.7,2 
NERRS,ioos:station:NOAA.NERRS:apaebwq:1,2017-02-07T06:45:00Z,29.7858,-84.8752,0.0,18.1,2 
NERRS,ioos:station:NOAA.NERRS:apaebwq:1,2017-02-07T07:45:00Z,29.7858,-84.8752,0.0,18.3,2 
NERRS,ioos:station:NOAA.NERRS:apaebwq:1,2017-02-07T08:45:00Z,29.7858,-84.8752,0.0,18.0,2 
NERRS,ioos:station:NOAA.NERRS:apaebwq:1,2017-02-07T09:45:00Z,29.7858,-84.8752,0.0,18.0,2 
NERRS,ioos:station:NOAA.NERRS:apaebwq:1,2017-02-07T10:45:00Z,29.7858,-84.8752,0.0,17.8,2 
NERRS,ioos:station:NOAA.NERRS:apaebwq:1,2017-02-07T11:45:00Z,29.7858,-84.8752,0.0,17.7,2 
NERRS,ioos:station:NOAA.NERRS:apaebwq:1,2017-02-07T12:45:00Z,29.7858,-84.8752,0.0,17.7,2 
NERRS,ioos:station:NOAA.NERRS:apaebwq:1,2017-02-07T13:45:00Z,29.7858,-84.8752,0.0,17.5,2 
NERRS,ioos:station:NOAA.NERRS:apaebwq:1,2017-02-07T14:45:00Z,29.7858,-84.8752,0.0,18.0,2 
NERRS,ioos:station:NOAA.NERRS:apaebwq:1,2017-02-07T15:45:00Z,29.7858,-84.8752,0.0,18.2,2 
NERRS,ioos:station:NOAA.NERRS:apaebwq:1,2017-02-07T16:45:00Z,29.7858,-84.8752,0.0,18.3,2 
NERRS,ioos:station:NOAA.NERRS:apaebwq:1,2017-02-07T17:45:00Z,29.7858,-84.8752,0.0,18.1,2 
NERRS,ioos:station:NOAA.NERRS:apaebwq:1,2017-02-07T18:45:00Z,29.7858,-84.8752,0.0,17.6,2 
NERRS,ioos:station:NOAA.NERRS:apaebwq:1,2017-02-07T19:45:00Z,29.7858,-84.8752,0.0,17.7,2 
NERRS,ioos:station:NOAA.NERRS:apaebwq:1,2017-02-07T20:45:00Z,29.7858,-84.8752,0.0,17.9,2 
NERRS,ioos:station:NOAA.NERRS:apaebwq:1,2017-02-07T22:45:00Z,29.7858,-84.8752,0.0,19.6,2 
NERRS,ioos:station:NOAA.NERRS:apaebwq:1,2017-02-07T23:45:00Z,29.7858,-84.8752,0.0,19.6,2 
NERRS,ioos:station:NOAA.NERRS:apaebwq:1,2017-02-08T00:45:00Z,29.7858,-84.8752,0.0,19.0,2 
NERRS,ioos:station:NOAA.NERRS:apaebwq:1,2017-02-08T01:45:00Z,29.7858,-84.8752,0.0,19.1,2 
NERRS,ioos:station:NOAA.NERRS:apaebwq:1,2017-02-21T14:00:00Z,29.7858,-84.8752,0.0,19.7,2 
 
DISCLAIMER: The Gulf of Mexico Coastal and Ocean Observing (GCOOS) Data Portal aggregates data from the regional data providers for the convenience of all data users. Data published on this website should not be used for navigation or certain other uses as we cannot guarantee data accuracy or availability. The data and delivery services are provided 'as is' without warranty of any kind. Data Source: Gulf of Mexico Coastal Ocean Observing System Data Portal (http://data.gcoos.org/) 
